Content
SEND FEEDBACK

Daily
Averages
Monthly
Summary
Greece

NAXOS, GREECE


Home > Europe > Greece
Elevation: 30 feet     Latitude: 37 06N     Longitude: 025 23E

WEATHER
 
SELECT A DAY
Number of Records: 93,793;   Date Range: 12/8/96 - 10/23/14
 
SHARE

PRINT THIS DATA

[ ← Previous Day ]
WEATHER ALMANAC - FEBRUARY 22, 2013
[ Next Day → ]
[ °C ]   °F
Weather ElementAverageHighLow
Temperature57.2 °F60.8 °F (12:20 pm)50 °F (5:50 pm)
Dewpoint51.8 °F55.4 °F (12:20 pm)46.4 °F (5:50 pm)
Humidity82.3 %100 % (6:50 pm)77 % (9:50 am)
Barometer29.59 in29.65 in (7:50 pm)29.56 in (8:50 am)
Wind Speed18 mph26.5 mph (8:50 am)
Wind Gust38 mph (8:50 am)
Weather ElementAverage
Visibility4.8 mi
Wind DirectionESE (101 °)

Weather ElementTotal
Precipitation---
Heating Degree Days9.6 (Base 65)
Growing Degree Days5.4 (Base 50)
Averaged from 20 records on February 22, 2013
WEATHER CONDITIONS BREAKOUT
WIND DIRECTION BREAKOUT
WEATHER BY HOUR - FEBRUARY 22, 2013
[ °C ]   °F
Local TimeTemperatureDewpointHumidityBarometerVisibilityWind DirectionWind SpeedGust SpeedPrecipitationEventsConditions
8:50 AM57.2 °F53.6 °F88 %29.56 in5.0 miESE (120°)26.5 mph38.0 mphOvercast
9:20 AM57.2 °F53.6 °F88 %29.56 in5.0 miESE (120°)24.2 mph36.8 mphOvercast
9:50 AM59.0 °F51.8 °F77 %29.59 in5.0 miESE (120°)23.0 mphOvercast
10:20 AM59.0 °F51.8 °F77 %29.59 in5.0 miESE (120°)21.9 mph34.5 mphOvercast
10:50 AM59.0 °F51.8 °F77 %29.59 in5.0 miSE (130°)17.3 mph28.8 mphOvercast
11:20 AM59.0 °F51.8 °F77 %29.59 in5.0 miSE (130°)21.9 mph34.5 mphMostly Cloudy
11:50 AM59.0 °F51.8 °F77 %29.56 in5.0 miSE (130°)20.7 mphMostly Cloudy
12:20 PM60.8 °F55.4 °F82 %29.56 in5.0 miSE (140°)17.3 mphMostly Cloudy
12:50 PM60.8 °F55.4 °F82 %29.56 in5.0 miSE (130°)19.6 mphMostly Cloudy
1:20 PM60.8 °F55.4 °F82 %29.59 in5.0 miSE (130°)19.6 mph31.1 mphMostly Cloudy
1:50 PM59.0 °F53.6 °F82 %29.59 in5.0 miSE (130°)18.4 mph29.9 mphMostly Cloudy
2:20 PM59.0 °F53.6 °F82 %29.59 in5.0 miSE (130°)18.4 mphMostly Cloudy
2:50 PM59.0 °F53.6 °F82 %29.59 in4.3 miESE (120°)17.3 mphMostly Cloudy
3:20 PM59.0 °F51.8 °F77 %29.59 in4.3 miSE (130°)16.1 mphOvercast
3:50 PM57.2 °F50.0 °F77 %29.59 in3.7 miNE (40°)15.0 mph26.5 mphOvercast
4:20 PM57.2 °F50.0 °F77 %29.59 in3.7 miNNE (30°)15.0 mph27.6 mphThunderstormThunderstorm
4:50 PM51.8 °F48.2 °F88 %29.59 in3.7 miNNE (20°)13.8 mphThunderstormThunderstorm
5:50 PM50.0 °F46.4 °F87 %29.59 in3.7 miENE (60°)12.7 mphRain-ThunderstormLight Thunderstorms and Rain
6:50 PM50.0 °F50.0 °F100 %29.59 in6.2 miENE (60°)11.5 mphMostly Cloudy
7:50 PM50.0 °F46.4 °F87 %29.65 in6.2 miNNE (30°)10.4 mphMostly Cloudy
Hourly data recorded from LGNX, located miles away from Naxos, Greece







STORIES FROM OUR PARTNERS